Tracking 26933 objects as of 5-Feb-2023
HD Live streaming from Space Station
objects crossing your sky now

LACUNASAT-2B

Track LACUNASAT-2B now!
10-day predictions


NORAD ID: 47948
Int'l Code: 2021-022S
Perigee: 512.9 km
Apogee: 540.8 km
Inclination: 97.5 °
Period: 95.0 minutes
Semi major axis: 6897 km
RCS: Unknown
Launch date: March 22, 2021
Source: United Kingdom (UK)
Launch site: TYURATAM MISSILE AND SPACE COMPLEX (TTMTR)
Your satellite tracking list
Your tracking list is empty




NASA's NSSDC Master Catalog

Two Line Element Set (TLE):
1 47948U 21022S   23036.30364000  .00016808  00000-0  88716-3 0  9995
2 47948  97.5198 298.2596 0020236  64.6635 295.6691 15.15426125103090
Source of the keplerian elements: AFSPC